Location: Sweet Grass
(48.9965°N, 111.9649°W)
Time: 09:15:05
(UTC+00:00)

ISS - Visible Passes

Search period start: 28 November 2022 00:00
Search period end: 08 December 2022 00:00
Orbit: 411 x 420 km, 51.6° (Epoch: 28 November)

Date Brightness Start Highest point End Pass type
(mag) Time Alt. Az. Time Alt. Az. Time Alt. Az.
28 Nov -3.5 00:34:58 10° W 00:38:16 56° N 00:40:45 16° ENE visible
28 Nov -1.8 02:11:57 10° WNW 02:13:38 27° WNW 02:13:38 27° WNW visible
29 Nov -3.6 01:23:15 10° WNW 01:26:32 54° N 01:26:55 50° NE visible
30 Nov -3.4 00:34:30 10° WNW 00:37:46 51° N 00:40:13 16° ENE visible
30 Nov -1.8 02:11:19 10° WNW 02:13:06 29° WNW 02:13:06 29° WNW visible
01 Dec -3.9 01:22:36 10° WNW 01:25:56 73° NNE 01:26:25 58° ENE visible
02 Dec -3.7 00:33:50 10° WNW 00:37:08 60° N 00:39:48 15° E visible
02 Dec -1.9 02:10:37 10° WNW 02:12:42 31° W 02:12:42 31° W visible
03 Dec -3.6 01:21:48 10° WNW 01:25:07 67° SSW 01:26:10 39° SE visible
04 Dec -3.8 00:32:59 10° WNW 00:36:20 89° NNE 00:39:39 10° ESE visible
04 Dec -1.5 02:10:05 10° W 02:12:40 22° SW 02:12:40 22° SW visible
05 Dec -2.2 01:21:00 10° W 01:24:03 33° SW 01:26:27 14° SSE visible
06 Dec -2.8 00:32:03 10° WNW 00:35:17 49° SSW 00:38:30 10° SE visible
07 Dec -0.8 01:20:35 10° W 01:22:42 16° SW 01:24:47 10° S visible
